This demonstration page uses our WeatherBlox Daily Observations layout. Learn more.

Left ArrowRight Arrow

39.01783, -85.05884

Hourly Observations for March 14, 2018

Temp ( °F °C ) Dew Point ( °F °C ) Humidity (%) Winds ( mph kmh ) Pressure ( in mb ) Visibility ( mi km ) Precip ( " mm )
12:52 am 00:52 Mostly Clear 27 -2.8 18 -7.8 69 69 NW 13 20 30.09 1019 10 16 N/A
1:52 am 01:52 Clear 25 -3.9 16 -8.9 69 69 NW 8 13 30.09 1019 10 16 N/A
2:52 am 02:52 Mostly Clear 24 -4.4 17 -8.3 75 75 WNW 9 15 30.09 1019 10 16 N/A
3:52 am 03:52 Partly Cloudy 24 -4.4 17 -8.3 75 75 WNW 10 17 30.09 1019 10 16 N/A
4:52 am 04:52 Mostly Clear 24 -4.4 18 -7.8 77 77 WNW 10 17 30.09 1019 10 16 N/A
5:52 am 05:52 Mostly Clear 24 -4.4 19 -7.2 81 81 WNW 10 17 30.09 1019 10 16 N/A
6:52 am 06:52 Cloudy 25 -3.9 20 -6.7 81 81 WNW 10 17 30.10 1019 10 16 N/A
7:52 am 07:52 Cloudy 24 -4.4 20 -6.7 84 84 W 10 17 30.11 1020 10 16 N/A
8:52 am 08:52 Cloudy with Light Snow 26 -3.3 22 -5.6 84 84 W 13 20 30.12 1020 9 14 N/A
9:08 am 09:08 Cloudy with Light Snow 26 -3.3 22 -5.6 84 84 W 12 19 30.15 1021 2 3 N/A
9:15 am 09:15 Cloudy with Light Snow 26 -3.3 23 -5 88 88 W 13 20 30.18 1022 2 3 N/A
9:23 am 09:23 Cloudy with Light Snow 26 -3.3 23 -5 88 88 W 12 19 30.18 1022 2 3 N/A
9:52 am 09:52 Cloudy with Light Snow 27 -2.8 23 -5 85 85 W 12 19 30.13 1020 2 3 N/A
10:03 am 10:03 Cloudy with Light Snow 27 -2.8 23 -5 85 85 W 12 19 30.18 1022 7 11 N/A
10:34 am 10:34 Cloudy with Light Snow 28 -2.2 22 -5.6 78 78 WNW 13 20 30.18 1022 3 4 N/A
10:38 am 10:38 Cloudy with Light Snow 28 -2.2 22 -5.6 78 78 WNW 12 19 30.18 1022 3 5 N/A
10:52 am 10:52 Cloudy 29 -1.7 21 -6.1 72 72 WNW 15 24 30.14 1021 8 13 N/A
11:52 am 11:52 Cloudy 31 -0.6 17 -8.3 56 56 WNW 12 19 30.14 1021 10 16 N/A
12:52 pm 12:52 Mostly Cloudy 34 1.1 18 -7.8 52 52 WNW 12 19 30.13 1020 10 16 N/A
1:52 pm 13:52 Mostly Cloudy 37 2.8 17 -8.3 44 44 W 16 26 30.11 1020 10 16 N/A
2:52 pm 14:52 Mostly Cloudy 38 3.3 17 -8.3 43 43 W 16 26 30.08 1019 10 16 N/A
3:52 pm 15:52 Mostly Cloudy 39 3.9 15 -9.4 38 38 WNW 13 20 30.04 1017 10 16 N/A
4:52 pm 16:52 Mostly Cloudy 40 4.4 14 -10 35 35 W 18 30 30.02 1017 10 16 N/A
5:52 pm 17:52 Partly Cloudy 40 4.4 14 -10 35 35 W 15 24 30.00 1016 10 16 N/A
6:52 pm 18:52 Mostly Sunny 39 3.9 15 -9.4 38 38 W 17 28 30.00 1016 10 16 N/A
7:52 pm 19:52 Mostly Clear 37 2.8 16 -8.9 42 42 WSW 12 19 29.98 1015 10 16 N/A
8:52 pm 20:52 Clear 35 1.7 16 -8.9 46 46 SW 8 13 29.97 1015 10 16 N/A
9:52 pm 21:52 Clear 33 0.6 17 -8.3 52 52 SW 8 13 29.97 1015 10 16 N/A
10:52 pm 22:52 Clear 33 0.6 17 -8.3 52 52 SW 7 11 29.98 1015 10 16 N/A
11:52 pm 23:52 Clear 33 0.6 19 -7.2 56 56 SSW 9 15 29.95 1014 10 16 N/A

Powered by AerisWeather